Theta_e
328 329 323 322 322 322 321 318 320 320 319 318 322 322 324 323 321 321 321 326 327 326 326 326 324 323 322 320 319 318 318 317 317 316 315 314 313 313 312 311 311 310 310
327 327 324 322 324 322 323 320 323 321 319 319 320 321 322 323 322 321 321 322 325 326 326 325 325 324 323 321 319 319 318 317 316 316 315 314 313 313 311 310 309 308 308
325 326 326 323 324 324 324 323 322 321 319 319 318 320 321 321 323 321 321 321 322 325 326 327 326 324 324 323 321 320 319 318 317 316 315 315 314 313 312 310 308 307 307
326 325 326 326 325 325 325 324 321 320 318 317 316 316 317 319 320 321 321 321 321 322 324 326 326 327 326 324 323 322 321 320 319 318 316 315 315 315 313 312 310 308 308
326 325 326 327 328 326 326 322 321 319 317 317 316 315 315 315 317 318 320 320 320 321 321 324 325 325 326 326 325 324 323 321 320 320 318 318 317 316 315 314 312 310 309
325 326 326 325 327 325 324 322 320 321 319 317 316 315 314 314 314 314 315 317 320 320 321 321 322 322 324 326 327 326 326 326 323 321 320 319 318 317 316 315 314 313 311
325 326 325 326 325 322 322 323 322 320 320 320 316 313 314 315 314 313 313 313 314 315 314 319 320 321 322 324 327 327 328 327 327 326 323 321 320 320 319 317 316 315 313
324 324 323 323 324 323 322 322 321 319 320 320 314 312 309 310 313 314 313 313 312 313 314 315 317 318 317 320 322 327 327 327 327 327 325 325 323 323 321 318 317 316 315
323 323 323 322 323 323 323 323 323 321 317 319 319 316 309 308 311 313 313 313 312 313 312 313 314 314 314 315 319 322 321 321 326 328 327 326 325 324 323 321 320 318 317
323 323 323 323 322 323 324 324 325 322 321 316 319 321 320 318 311 310 314 314 315 313 313 313 312 313 313 313 315 315 314 315 319 324 325 324 323 323 323 321 320 320 318
322 323 323 324 323 322 324 324 323 323 322 318 317 316 317 317 317 311 307 311 314 315 313 313 312 312 312 311 310 312 311 312 314 319 322 322 321 319 318 317 318 318 318
322 322 323 324 323 325 324 322 323 322 320 318 318 319 317 314 314 312 310 311 311 313 314 313 313 310 310 308 311 311 310 309 311 314 316 317 317 316 314 314 314 314 315
318 321 321 322 321 322 324 324 321 320 320 318 317 317 318 317 318 316 313 311 310 312 312 312 312 311 312 310 311 311 309 305 305 308 310 311 312 313 312 312 312 312 313
319 321 322 321 321 321 321 320 319 320 319 319 318 318 318 318 318 318 315 312 307 308 309 310 313 314 313 315 314 309 309 304 303 304 306 307 308 309 309 309 308 308 307
319 320 321 321 319 319 319 319 319 318 319 319 318 318 319 319 320 319 318 317 313 308 307 310 312 315 315 317 313 311 311 303 302 301 302 304 306 306 306 306 305 305 305
321 320 320 321 320 319 319 319 318 319 319 318 319 318 318 319 320 321 320 318 316 313 309 313 312 315 315 315 313 307 306 304 301 300 300 300 301 302 303 303 303 302 301
322 320 319 319 319 318 319 319 319 318 317 317 318 318 319 320 320 320 320 320 317 316 312 314 312 312 309 310 304 306 306 304 300 299 298 298 298 298 299 298 298 298 298
322 321 320 319 319 319 319 318 317 318 317 315 317 317 318 319 319 320 320 318 318 318 315 311 312 309 309 309 304 303 306 307 305 301 299 299 298 296 295 295 295 294 294
321 322 321 319 319 319 318 318 318 317 317 317 317 317 317 317 317 319 319 317 317 316 314 312 312 305 305 302 301 301 301 302 304 304 299 297 296 296 295 294 293 293 294
321 321 321 320 320 320 320 319 319 318 318 318 318 318 318 318 317 318 317 316 315 313 312 310 310 298 300 298 301 299 297 298 298 301 299 297 296 295 294 293 293 293 293
323 322 322 321 321 321 321 320 320 319 318 319 319 319 319 316 309 314 316 314 312 310 310 308 306 294 295 292 296 297 295 293 295 297 293 292 291 289 290 293 293 294 293
323 322 322 321 320 320 309 303 311 318 318 317 317 318 318 306 306 301 301 302 309 311 308 306 304 298 298 294 291 290 288 287 285 294 291 290 290 288 290 291 293 293 293
322 322 321 321 320 320 304 301 300 317 318 317 317 317 315 314 304 311 299 293 289 288 293 302 298 290 288 290 290 286 285 285 285 288 288 285 288 286 289 291 292 293 292
321 320 320 321 320 320 302 301 298 310 315 316 316 316 312 311 306 300 290 286 286 286 287 288 287 287 287 288 288 287 285 285 285 287 288 282 285 284 287 288 291 292 292
320 320 320 320 319 319 301 299 298 309 312 297 294 293 296 294 292 292 287 286 284 283 286 286 286 286 286 286 286 285 283 282 282 282 286 284 284 283 283 283 286 290 289
320 320 316 301 294 303 292 294 298 297 290 287 286 287 288 288 288 288 287 285 282 280 281 281 280 282 282 282 282 283 283 281 281 280 283 281 281 280 278 282 282 282 282
Wind_Speed
7 9 8 9 7 9 8 8 7 8 7 6 5 4 3 13 13 7 5 12 13 14 16 16 16 15 15 14 14 13 13 12 12 12 11 10 9 9 8 8 8 8 8
10 7 7 9 6 9 8 7 6 6 5 5 5 4 4 11 12 12 7 6 12 13 13 16 16 15 15 15 14 13 12 11 10 9 10 9 8 8 7 7 7 6 5
8 8 7 8 7 9 10 6 6 5 5 6 6 4 4 3 12 12 10 6 6 11 12 14 15 16 16 15 15 14 13 12 12 11 10 10 10 9 8 7 6 5 4
7 9 11 8 9 10 7 6 5 5 5 5 4 4 4 3 6 11 10 9 8 7 8 12 14 16 16 17 16 16 15 15 14 14 14 12 12 12 11 10 9 7 7
10 12 5 6 6 8 5 7 4 5 5 4 6 5 4 4 4 3 8 11 12 10 8 12 13 13 16 18 18 16 17 17 17 17 16 16 15 15 14 13 12 11 9
13 10 10 5 7 5 5 5 5 3 5 4 8 5 4 4 5 4 5 4 9 9 11 12 10 10 15 18 19 20 20 21 21 19 18 18 18 17 17 16 15 14 13
12 5 4 5 4 5 5 5 4 4 2 3 4 4 2 4 5 5 5 5 5 6 6 7 8 7 8 18 20 22 22 21 22 23 21 21 20 19 19 18 18 17 16
8 7 6 6 5 5 5 4 5 3 2 3 4 4 3 2 4 4 4 6 7 6 6 6 8 9 8 9 13 23 25 23 22 21 22 21 20 19 20 21 20 19 19
12 9 8 7 7 5 6 5 6 6 4 3 5 5 3 5 4 4 8 5 7 5 6 7 8 7 7 7 11 16 21 19 20 19 18 19 21 20 21 22 21 21 21
12 12 10 10 10 6 7 6 5 5 6 7 2 4 4 1 3 2 3 6 5 6 6 4 6 6 7 5 7 9 14 18 21 20 17 15 12 13 17 20 21 22 23
6 7 8 9 10 6 6 7 7 8 8 4 3 1 3 4 5 5 4 4 4 5 6 7 6 6 7 6 5 7 13 19 20 20 18 17 16 16 16 16 17 17 21
7 8 6 9 7 7 6 6 6 12 5 6 4 5 5 3 4 4 4 4 6 5 5 7 9 6 6 6 9 13 14 15 16 16 15 15 17 18 18 19 19 19 20
8 10 11 9 8 8 6 6 8 5 6 5 7 5 7 5 4 3 2 4 5 3 4 4 5 6 7 8 11 16 13 17 16 16 15 14 14 15 15 16 15 16 16
11 12 12 12 11 9 8 7 5 5 5 6 9 10 10 7 4 5 6 4 3 4 4 7 7 10 9 10 12 14 11 18 16 16 15 14 14 12 11 11 13 13 13
10 10 11 11 12 13 12 10 8 9 9 10 10 10 10 8 6 5 5 6 7 7 9 7 6 11 10 10 10 10 13 13 14 14 13 13 13 12 11 10 10 12 12
14 15 14 15 15 14 13 12 11 12 12 11 9 11 11 9 8 7 7 5 6 9 11 6 6 5 7 8 9 8 8 12 15 15 14 13 12 12 11 10 9 10 11
14 15 16 17 16 15 15 14 16 15 15 14 13 13 12 11 9 8 7 8 9 9 12 9 5 5 5 7 6 7 8 7 7 14 14 14 15 13 12 11 11 10 11
16 16 16 18 18 18 17 18 17 16 17 18 17 14 15 11 12 11 8 10 10 11 11 16 8 6 7 7 4 8 8 8 8 14 17 18 14 13 11 11 10 10 10
19 18 19 19 19 18 18 19 19 19 18 17 16 16 16 14 14 11 12 10 11 10 10 11 11 3 4 5 5 6 6 5 6 9 15 15 14 13 13 11 11 10 11
18 19 19 20 19 20 20 20 20 20 20 19 18 16 16 16 16 14 13 14 12 10 10 11 11 4 4 2 6 9 7 5 4 4 8 9 11 12 12 11 12 13 14
17 18 18 20 19 19 16 21 21 20 19 19 19 17 17 18 18 16 11 12 11 11 12 11 11 4 5 4 12 6 5 3 2 0 2 4 4 4 5 10 10 15 17
19 18 20 20 19 16 20 20 19 17 18 17 18 17 16 12 14 17 18 17 16 16 16 13 13 10 10 1 4 4 3 3 2 3 2 7 2 4 3 3 6 10 10
17 20 20 19 20 20 17 17 19 17 16 15 14 13 13 8 11 10 9 5 9 8 1 9 8 3 4 4 4 4 4 3 5 1 4 2 3 3 3 4 8 8 7
17 16 17 18 17 17 13 18 17 13 14 16 15 13 7 7 7 8 9 9 8 8 7 7 9 8 9 8 8 5 4 4 2 2 2 4 2 4 4 4 8 11 7
13 14 13 13 15 15 11 15 11 9 11 3 6 6 4 5 10 19 13 12 11 11 15 22 21 20 18 17 9 6 4 2 0 3 3 2 2 4 3 3 4 7 9
13 10 6 6 11 5 8 4 8 5 6 5 7 8 12 11 15 12 13 12 12 7 8 9 10 11 12 8 7 3 3 4 2 1 2 2 4 3 4 2 2 4 4
Wind_Direction
128 139 142 143 157 141 147 176 190 151 156 179 132 154 216 116 122 131 142 148 150 151 150 149 149 149 144 141 141 141 141 141 138 133 130 129 126 119 114 107 99 88 81
125 156 154 155 170 159 159 192 176 140 160 135 136 184 121 130 131 141 140 153 152 161 161 161 160 163 162 160 161 159 157 158 156 157 155 157 156 151 141 145 131 126 117
129 172 168 170 178 169 175 194 146 139 136 144 156 152 119 131 146 139 150 159 170 178 178 174 175 177 179 178 176 178 178 180 182 182 182 185 185 183 182 177 170 167 163
157 203 184 179 189 175 181 156 144 148 145 149 148 151 144 151 123 153 155 162 174 185 196 190 191 188 191 189 189 194 195 195 199 200 200 200 201 200 202 202 203 199 208
188 190 175 202 155 175 151 145 152 150 142 149 142 161 154 146 145 167 160 174 177 184 183 201 199 201 198 200 203 203 204 200 208 210 213 212 214 213 213 214 218 219 221
202 150 204 178 165 167 131 137 150 159 148 160 164 146 155 169 167 186 204 182 180 180 184 189 196 205 204 207 212 212 215 212 211 214 218 219 220 223 221 220 223 226 230
193 180 132 128 123 126 124 143 133 152 114 141 104 116 154 185 177 195 188 193 204 193 200 184 185 199 206 211 213 220 224 224 221 218 218 221 222 221 224 225 227 229 232
174 162 157 158 140 134 147 160 129 113 120 160 153 131 159 279 251 232 195 201 204 190 202 204 185 195 205 207 214 217 224 229 233 229 229 225 225 225 222 229 231 232 235
181 184 168 172 165 158 173 171 148 152 174 216 204 151 141 215 161 194 231 214 204 198 191 195 204 203 204 195 202 215 219 228 236 241 235 228 225 225 228 234 237 236 240
180 191 180 181 175 178 172 174 154 179 176 193 215 251 262 267 120 316 237 229 209 200 210 211 207 208 209 209 199 202 211 218 223 230 235 236 226 224 227 235 241 241 241
193 200 186 175 178 188 168 161 183 206 204 156 181 214 266 254 244 197 231 205 216 210 192 198 206 204 203 204 216 219 212 214 218 223 222 227 230 235 239 245 248 246 246
193 194 178 189 180 177 166 165 191 219 175 159 199 217 212 228 248 214 224 229 187 219 203 200 206 203 205 201 216 225 213 209 204 204 211 217 228 235 240 247 253 256 259
196 197 193 200 197 186 168 176 190 188 181 175 180 226 258 233 224 244 220 247 228 206 223 233 224 218 215 222 226 213 209 201 198 194 197 209 220 230 239 245 250 255 260
198 199 191 195 196 181 178 178 176 191 181 203 207 200 238 231 216 220 222 205 261 231 221 237 214 224 214 216 218 211 212 195 193 194 191 200 208 207 213 223 236 245 255
199 201 197 199 204 196 195 188 192 209 213 218 220 221 220 225 216 218 221 220 217 243 248 249 227 209 216 213 211 210 220 196 190 191 188 196 201 203 205 214 226 237 245
199 197 206 199 199 203 203 202 209 216 215 221 221 224 227 224 225 220 221 221 214 223 255 244 251 228 206 221 204 174 183 177 189 189 187 188 196 204 203 209 222 238 247
202 205 202 206 207 208 208 213 216 214 219 228 223 221 226 218 222 225 221 213 223 224 246 246 210 225 217 213 167 183 165 180 186 188 189 188 195 196 195 208 219 230 242
206 208 206 208 212 213 213 216 220 222 227 234 235 227 230 228 231 223 217 211 222 223 230 251 230 228 209 215 186 189 191 197 181 194 205 205 192 187 198 212 225 236 243
210 210 211 214 212 215 215 220 224 228 229 231 231 230 235 230 232 222 220 223 225 229 236 244 245 196 186 188 167 191 187 220 226 194 206 179 178 189 204 217 231 234 237
211 211 211 216 213 214 218 219 222 226 229 232 234 233 232 231 233 221 223 225 229 232 236 240 246 213 197 187 202 188 203 191 202 166 192 182 189 203 207 216 226 232 240
217 217 214 216 216 219 217 216 217 221 226 231 232 233 235 234 229 211 209 220 226 235 240 241 238 185 190 180 203 197 199 130 66 260 264 161 159 193 211 221 229 236 242
216 218 220 222 222 225 225 216 224 231 234 236 239 238 236 221 210 206 212 225 232 231 234 228 229 224 238 184 120 128 83 61 121 18 48 315 214 203 215 213 232 241 229
214 219 224 223 226 229 224 217 215 226 234 238 240 243 245 232 207 217 229 125 68 59 235 203 207 156 129 125 77 80 44 105 144 218 348 216 283 294 277 272 273 264 235
225 226 227 225 229 233 216 214 207 217 231 237 241 244 227 208 185 152 117 92 74 43 31 72 97 107 108 91 96 108 109 109 22 321 185 227 225 249 254 249 281 301 290
225 228 232 233 234 239 227 218 185 211 230 70 46 34 75 101 130 133 121 113 93 72 66 78 82 78 71 86 89 98 108 84 257 215 201 232 244 270 252 260 255 313 338
223 217 204 33 25 73 26 101 157 120 111 95 70 63 72 100 101 114 119 120 106 99 86 83 74 71 67 61 69 93 161 143 125 329 25 20 6 5 322 248 0 334 306